Regional Weather Roundup
Issued by NWS

Home | Current Version | Previous Version | Text Only | Print | Product List | Glossary On
Versions: 1 2 3 4 5 6 7 8 9 10 11 12 13 14 15 16 17 18 19 20 21 22 23 24 25 26 27 28 29 30 31 32 33 34 35 36 37 38 39 40 41 42 43 44 45 46 47 48 49 50
000
ASUS45 KBOU 170110
RWRCO

WEATHER ROUNDUP FOR COLORADO
NATIONAL WEATHER SERVICE DENVER/BOULDER CO
700 PM MDT THU AUG 16 2018

NOTE: "FAIR" INDICATES FEW OR NO CLOUDS BELOW 12000 FEET WITH NO
SIGNIFICANT WEATHER AND/OR OBSTRUCTIONS TO VISIBILITY.

COZ001>005-013-030-031-170200-
...NORTHWEST COLORADO...

CITY           SKY/WX    TMP DP  RH WIND       PRES   REMARKS
CRAIG          FAIR      78  44  29 S13       30.24S
HAYDEN         FAIR      77  40  26 VRB6      30.30R
MEEKER         FAIR      72  48  42 E12G18    30.30S
RANGELY        FAIR      87  42  20 CALM      30.15F
RABBIT EARS PA MOCLDY    61  34  36 CALM      30.62S
STEAMBOAT SPGS FAIR      76  37  24 SE3       30.31S
WALDEN         CLOUDY    75  27  16 NE8       30.41S
$$

COZ006>008-011-170200-
...WEST CENTRAL VALLEYS...

CITY           SKY/WX    TMP DP  RH WIND       PRES   REMARKS
GRAND JUNCTION FAIR      90  45  21 S6        30.10S
MONTROSE       FAIR      72  51  47 S18G31    30.27R
EAGLE          PTSUNNY   76  42  29 W10       30.34R
RIFLE          PTSUNNY   76  49  38 E10       30.26R
DELTA          PTSUNNY   79  49  34 E10G21    30.21R HAZE
NUCLA          FAIR      82  41  23 E15         N/A
$$

COZ017>023-064>068-170200-
...SOUTHWEST COLORADO...

CITY           SKY/WX    TMP DP  RH WIND       PRES   REMARKS
DURANGO        CLOUDY    74  49  41 N12       30.31R
CORTEZ         FAIR      80  50  34 NE9       30.22R
PAGOSA SPRINGS FAIR      72  41  32 NW5       30.40R
TELLURIDE      FAIR      63  46  55 S3        30.53S
WOLF CREEK PAS CLOUDY    46  41  81 N6        30.77S
$$

COZ009-010-012-014-032>034-037-058>063-170200-
...CENTRAL COLORADO...

CITY           SKY/WX    TMP DP  RH WIND       PRES   REMARKS
ASPEN          PTSUNNY   70  43  37 SE10      30.39S
BUENA VISTA    FAIR     N/A N/A N/A NW10      30.45S
COPPER MTN     CLOUDY    54  43  66 CALM      30.75R
BERTHOUD PASS  CLOUDY    50  34  53 SE16G23   30.77F
COTTONWOOD PAS FAIR      63  43  48 S3        30.60S
GUNNISON       LGT RAIN  57  53  86 CALM      30.47R
GRANBY         FAIR      68  40  35 SE6       30.44S
KREMMLING      FAIR      73  37  27 W3        30.36S
LEADVILLE      FAIR      53  46  77 SE3       30.60F
MONARCH PASS   CLOUDY    48  37  66 MISG      30.84S
SALIDA         MOCLDY    69  46  43 NW3       30.50S
SUNLIGHT       LGT RAIN  50  43  76 NE5       30.68S
WILKERSON PASS CLOUDY    52  37  58 W7        30.72S
$$

COZ069>075-170200-
...SAN LUIS VALLEY/SANGRE DE CRISTO MOUNTAINS...

CITY           SKY/WX    TMP DP  RH WIND       PRES   REMARKS
ALAMOSA        FAIR      68  44  42 E7        30.40S
DEL NORTE      LGT RAIN  63  48  58 SW7       30.46R
LA VETA PASS   NOT AVBL
SAGUACHE       CLOUDY    63  48  59 CALM      30.47R
$$

COZ035-036-038>040-170200-
...NORTHERN COLORADO FRONT RANGE...

CITY           SKY/WX    TMP DP  RH WIND       PRES   REMARKS
DENVER INTL AP MOCLDY    83  47  28 SE6       30.20R
AURORA         MOCLDY    79  49  33 SE7       30.22S
FRONT RANGE AP MOCLDY    82  46  28 E7        30.22S
ERIE MUNI ARPT FAIR      81  53  38 CALM      30.23S
BOULDER MUN AP FAIR      81  52  36 CALM      30.20S
CENTENNIAL     MOCLDY    81  47  30 SW14      30.23S
BROOMFIELD     CLOUDY    84  41  21 CALM      30.23R
FORT COLLINS   FAIR      82  51  34 CALM      30.18R
LONGMONT       FAIR      83  57  41 W3        30.19F
$$

COZ041-046-047-076>085-087-088-170200-
...PIKES PEAK/PALMER DIVIDE AND SOUTHERN FOOTHILLS...

CITY           SKY/WX    TMP DP  RH WIND       PRES   REMARKS
COLO. SPRINGS  MOCLDY    76  43  30 W13       30.30R
A. F. ACADEMY  MOCLDY    73  43  33 SW20G30   30.31S
SCHRIEVER AFB  NOT AVBL
CHEYENNE MTN   MOCLDY    68  49  51 W6        30.31F
ELLICOTT         N/A    N/A N/A N/A E6        30.27R
FALCON         MOCLDY    72  40  31 W10       30.35F
FORT CARSON    NOT AVBL
LIMON          FAIR      78  51  38 SE12      30.23R
MONUMENT HILL  FAIR      68  46  45 SW9       30.37S
CANON CITY     MOCLDY    79  50  36 W8        30.27F
WALSENBURG     NOT AVBL
TRINIDAD       FAIR      81  46  29 W6        30.22S
$$

COZ042>045-048>051-090-091-170200-
...NORTHEAST COLORADO...

CITY           SKY/WX    TMP DP  RH WIND       PRES   REMARKS
GREELEY ARPT   FAIR      83  54  36 SE7       30.16R
AKRON          FAIR      80  54  40 SE13      30.17R
BURLINGTON     FAIR      81  55  40 E8        30.15R
WRAY           FAIR      81  48  32 E7        30.13S
YUMA           FAIR     N/A N/A N/A E8        30.14S
STERLING       FAIR      82  52  34 E5        30.11S
HOLYOKE        FAIR      81  52  36 SE9       30.13R
FORT MORGAN    FAIR      81  48  31 E7        30.16S
$$

COZ086-089-092>099-170200-
...SOUTHEAST COLORADO...

CITY           SKY/WX    TMP DP  RH WIND       PRES   REMARKS
PUEBLO         TSTM      77  56  48 W22G31    30.20R
LA JUNTA       FAIR      88  58  36 E13       30.10R
LAMAR          FAIR      86  61  42 NE8       30.05R
SPRINGFIELD      N/A     86  55  34 E6        30.10R
$$



USA.gov is the U.S. government's official web portal to all federal, state and local government web resources and services.